AMOS-3

Last updated on Tue Oct 08 2024 00:02:38 GMT+0000 (Coordinated Universal Time)

1 32794U 08022A 24281.32776031 -.00000023 00000+0 00000+0 0 9997 2 32794 0.0301 249.3490 0002781 309.9471 291.0813 1.00275290 76141
UTC large
Height (km)
Speed (km/s)
/
Latitude / Longitude
Inclination (degrees)
Orbital Period (minutes)
Azimuth
Elevation
Range (km)
Doppler Factor

Next 0 passes for location: London (51.5072 / 0.1276)

Sorry there are no passes over London.